Regional Weather Roundup
Issued by NWS

Home | Current Version | Previous Version | Graphics & Text | Print | Product List | Glossary On
Versions: 1 2 3 4 5 6 7 8 9 10 11 12 13 14 15 16 17 18 19 20 21 22 23 24 25 26 27 28 29 30 31 32 33 34 35 36 37 38 39 40 41 42 43 44 45 46 47 48 49 50
000
ASUS43 KDMX 082301
RWRIA

WEATHER ROUNDUP FOR IOWA
NATIONAL WEATHER SERVICE DES MOINES IA
500 PM CST THU DEC 08 2016

NOTE: "FAIR" INDICATES FEW OR NO CLOUDS BELOW 12,000 FEET WITH NO
SIGNIFICANT WEATHER AND/OR OBSTRUCTIONS TO VISIBILITY.

* - THESE STATIONS ARE NOT NWS STATIONS...THUS NOT UNDER NWS
QUALITY CONTROL.  THEY ALSO DO NOT REPORT WEATHER SUCH
AS PRECIPITATION OR FOG.

IAZ001>003-012>014-020>022-031>034-043>046-090000-
   NORTHWEST IOWA

CITY           SKY/WX    TMP DP  RH WIND       PRES   REMARKS
CARROLL *      CLEAR     19  10  68 NW14      30.54S WCI   6
CHEROKEE *     CLEAR     20  10  65 NW9G16    30.56R WCI   9
DENISON *      CLEAR     19   9  63 NW10      30.55S WCI   8
LE MARS *      CLEAR     19   9  63 NW13      30.60R WCI   7
ORANGE CITY *  CLEAR     18   9  68 NW13G20   30.56R WCI   4
SHELDON *      PTCLDY    18  10  73 NW12      30.53S WCI   5
SIOUX CITY     CLEAR     22   8  55 NW16      30.61R WCI   8
SPENCER        CLEAR     17  10  74 NW21      30.53R WCI   0
STORM LAKE *   CLEAR     19   9  63 NW15      30.53R WCI   5
$$

IAZ055>058-069>071-079>083-090>094-090000-
   SOUTHWEST IOWA

CITY           SKY/WX    TMP DP  RH WIND       PRES   REMARKS
ATLANTIC *     CLEAR     19   9  63 NW12      30.58R WCI   7
AUDUBON *      CLEAR     19   9  63 NW6       30.56R WCI  11
CLARINDA *     CLEAR     23  10  58 NW9       30.62S WCI  13
COUNCIL BLFS * CLEAR     21   9  58 NW10      30.60R WCI  10
CRESTON *      CLEAR     19   9  63 NW13      30.56R WCI   7
HARLAN  *      CLEAR     19   9  63 NW10      30.62R WCI   8
LAMONI         CLEAR     21  10  62 NW12      30.55R WCI   9
RED OAK *      CLEAR     21  10  63 NW9       30.60S WCI  11
SHENANDOAH *   CLEAR     23  10  58 NW7       30.63R WCI  15
$$

IAZ047>049-059>061-072>074-084-090000-
   CENTRAL IOWA

CITY           SKY/WX    TMP DP  RH WIND       PRES   REMARKS
AMES           CLEAR     22  12  65 NW10      30.52R WCI  11
ANKENY *       PTCLDY    23  10  58 NW12      30.55R WCI  12
BOONE *        PTCLDY    21  10  63 NW12G18   30.50S WCI   9
CHARITON *     CLEAR     21  10  63 NW9       30.54R WCI  11
DES MOINES     PTCLDY    23  10  57 NW13      30.54R WCI  11
GRINNELL*      MOCLDY    22  14  71 W13       30.50R WCI  10
KNOXVILLE *    CLEAR     21   9  58 W10       30.52R WCI  10
MARSHALLTOWN   CLOUDY    23  14  68 NW20      30.49R WCI   8
NEWTON *       CLOUDY    21  12  68 NW14      30.51R WCI   8
PELLA *        CLEAR     22  12  64 NW12      30.54R WCI  11
PERRY *          N/A     22  13  69 NW9       30.55R WCI  12
$$

IAZ004>006-015-016-023>025-035-036-090000-
   NORTH CENTRAL IOWA

CITY           SKY/WX    TMP DP  RH WIND       PRES   REMARKS
ALGONA *       CLOUDY    19  10  68 NW17G23   30.50R WCI   4
CLARION *      CLEAR     21  12  68 NW20G26   30.49R WCI   6
ESTHERVILLE    CLEAR     17  10  74 NW16      30.50R WCI   2
FORT DODGE *   PTCLDY    21   9  58 NW8       30.52R WCI  12
MASON CITY     FLURRIES  19  11  70 NW18      30.48R WCI   4
WEBSTER CITY * CLOUDY    23  12  63 NW17      30.49R WCI   9
IOWA FALLS *   MOCLDY    23  14  69 NW14      30.49R WCI  11
$$

IAZ007>011-017>019-026>030-037>042-050>054-066-090000-
   NORTHEAST IOWA

CITY           SKY/WX    TMP DP  RH WIND       PRES   REMARKS
CEDAR RAPIDS   CLOUDY    20  16  84 W16       30.47R WCI   6
CHARLES CITY * LGT SNOW  19  14  79 NW15G21   30.46R WCI   5
CLINTON *      FLURRIES  22  16  78 W21       30.45R WCI   6
DECORAH *      CLOUDY    19  16  86 NW10      30.40R WCI   8
DUBUQUE        CLOUDY    21  13  71 NW17      30.41R WCI   7
MONTICELLO *   FLURRIES  21  14  73 W13G22    30.45R WCI   9
OELWEIN *      FLURRIES  19  14  79 NW15      30.45R WCI   5
WATERLOO       CLOUDY    21  14  74 NW12      30.47R WCI   9
$$

IAZ064-065-067-068-078-090000-
   EAST CENTRAL IOWA

CITY           SKY/WX    TMP DP  RH WIND       PRES   REMARKS
DAVENPORT      FLURRIES  21  15  78 W17G25    30.46R WCI   7
IOWA CITY      CLOUDY    22  13  68 NW10G23   30.52R WCI  11
MUSCATINE *    CLOUDY    23  12  63 W14G20    30.52R WCI  11
QUAD CITIES    CLOUDY    23  13  65 W16G25    30.47R WCI  10
$$

IAZ062-063-075>077-085>089-095>099-090000-
   SOUTHEAST IOWA

CITY           SKY/WX    TMP DP  RH WIND       PRES   REMARKS
BURLINGTON     CLOUDY    21  11  65 NW12      30.51R WCI   9
FAIRFIELD *    CLOUDY    21  10  63 W12G18    30.52R WCI   9
FORT MADISON * MOCLDY    21  10  63 NW13      30.53R WCI   9
KEOKUK *       PTCLDY    23  12  63 NW10      30.52R WCI  12
OSKALOOSA *      N/A     20  13  72 NW12      30.52S WCI   8
CENTERVILLE *    N/A     19  10  68 W10       30.54S WCI   8
OTTUMWA        PTCLDY    21  10  62 W12       30.51R WCI   9
WASHINGTON *   CLOUDY    21  14  73 NW15G22   30.52R WCI   8
$$

ABBREVIATIONS USED IN REMARKS
   TC - TEMPERATURES IN CELSIUS
  WCI - WIND CHILL INDEX
   HX - HEAT INDEX
  VSB - VISIBILITY
$$





USA.gov is the U.S. government's official web portal to all federal, state and local government web resources and services.